Weather History for KHIE - September, 2013

Change the Weather History Date:

Monday, September 2, 2013

  Actual Average Record
Temperature  
Mean Temperature 70 °F -  
Max Temperature 77 °F 73 °F 88 °F (1999)
Min Temperature 66 °F 43 °F 33 °F (2007)
Cooling Degree Days 6    
Growing Degree Days 20 (Base 50)    
Moisture  
Dew Point 64 °F    
Average Humidity 83    
Maximum Humidity 94    
Minimum Humidity 67    
Precipitation  
Precipitation 0.95 in - - ()
Sea Level Pressure  
Sea Level Pressure 29.79 in    
Wind  
Wind Speed 5 mph (East)    
Max Wind Speed 12 mph    
Max Gust Speed 17 mph    
Visibility 7 miles    
Events Rain , Thunderstorm    
Averages and records for this station are not official NWS values.
T = Trace of Precipitation, MM = Missing Value Source: NWS Daily Summary

Daily Weather History Graph

Daily Weather History Graph

Search for Another Location

Airport or City:

Trip Planner

Search our weather history database for the weather conditions in past years. The results will help you decide how hot, cold, wet, or windy it might be!

Date:

Astronomy

Sep. 02, 2013 Rise Set
Actual Time 6:10 AM EDT 7:20 PM EDT
Civil Twilight 5:40 AM EDT 7:50 PM EDT
Nautical Twilight 5:04 AM EDT 8:25 PM EDT
Astronomical Twilight 4:26 AM EDT 9:03 PM EDT
Moon 3:20 AM EDT (9/2) 5:34 PM EDT (9/2)
Length of Visible Light 14h 09m
Length of Day
13h 09m
Waning Crescent, 8% of the Moon is Illuminated
Sep 2
Waning Crescent
Sep 5
New
Sep 12
First Quarter
Sep 19
Full
Sep 26
Last Quarter

Hourly Weather History & Observations

Time (EDT) Temp. Dew Point Humidity Pressure Visibility Wind Dir Wind Speed Gust Speed Precip Events Conditions
12:52 AM 72.0 °F 64.0 °F 76% 29.87 in 10.0 mi NW 3.5 mph - N/A   Overcast
1:52 AM 70.0 °F 64.9 °F 84% 29.86 in 10.0 mi Calm Calm - 0.01 in Rain Light Rain
2:52 AM 68.0 °F 64.9 °F 90% 29.86 in 10.0 mi Calm Calm - 0.00 in   Mostly Cloudy
3:52 AM 70.0 °F 64.9 °F 84% 29.84 in 10.0 mi East 9.2 mph - N/A   Overcast
4:52 AM 69.1 °F 64.0 °F 84% 29.83 in 10.0 mi East 8.1 mph 17.3 mph N/A   Mostly Cloudy
5:52 AM 70.0 °F 64.0 °F 81% 29.83 in 10.0 mi East 9.2 mph - N/A   Overcast
6:52 AM 68.0 °F 64.9 °F 90% 29.84 in 4.0 mi SE 3.5 mph - 0.13 in Rain Rain
7:17 AM 68.0 °F 64.4 °F 88% 29.85 in 2.0 mi ESE 3.5 mph - 0.13 in Rain Heavy Rain
7:34 AM 68.0 °F 64.4 °F 88% 29.84 in 3.0 mi East 3.5 mph - 0.21 in Rain Heavy Rain
7:52 AM 69.1 °F 64.9 °F 87% 29.81 in 4.0 mi East 10.4 mph - 0.27 in Rain Rain
8:52 AM 70.0 °F 64.0 °F 81% 29.83 in 10.0 mi East 6.9 mph - 0.06 in   Overcast
9:52 AM 71.1 °F 64.0 °F 78% 29.83 in 10.0 mi East 9.2 mph - N/A   Scattered Clouds
10:52 AM 73.0 °F 64.9 °F 76% 29.81 in 10.0 mi ENE 9.2 mph - N/A   Clear
11:52 AM 73.0 °F 64.0 °F 73% 29.80 in 10.0 mi ESE 6.9 mph - N/A   Partly Cloudy
12:52 PM 72.0 °F 64.0 °F 76% 29.80 in 10.0 mi East 8.1 mph - N/A   Overcast
1:52 PM 72.0 °F 63.0 °F 73% 29.79 in 10.0 mi ENE 10.4 mph - N/A   Overcast
2:52 PM 73.0 °F 64.0 °F 73% 29.77 in 10.0 mi ENE 10.4 mph - N/A   Mostly Cloudy
3:52 PM 73.0 °F 64.0 °F 73% 29.76 in 10.0 mi East 10.4 mph - N/A   Mostly Cloudy
4:52 PM 75.9 °F 64.0 °F 67% 29.75 in 10.0 mi SSE 8.1 mph - N/A   Overcast
5:52 PM 73.9 °F 64.0 °F 71% 29.73 in 10.0 mi ENE 11.5 mph - N/A   Scattered Clouds
6:52 PM 70.0 °F 63.0 °F 78% 29.73 in 10.0 mi Variable 3.5 mph - N/A   Partly Cloudy
7:52 PM 69.1 °F 63.0 °F 81% 29.75 in 10.0 mi Calm Calm - N/A   Overcast
8:08 PM 68.0 °F 62.6 °F 83% 29.75 in 1.8 mi Calm Calm - 0.11 in Rain Heavy Rain
8:16 PM 68.0 °F 64.4 °F 88% 29.75 in 3.0 mi NW 3.5 mph - 0.11 in Rain Light Rain
8:52 PM 66.9 °F 64.0 °F 90% 29.74 in 7.0 mi Calm Calm - 0.15 in Rain Light Rain
9:52 PM 66.0 °F 63.0 °F 90% 29.75 in 10.0 mi NW 3.5 mph - 0.02 in   Mostly Cloudy
10:52 PM 66.9 °F 63.0 °F 87% 29.75 in 10.0 mi Calm Calm - N/A   Overcast
11:12 PM 66.2 °F 62.6 °F 88% 29.76 in 10.0 mi WNW 3.5 mph - N/A Thunderstorm Overcast
11:26 PM 66.2 °F 64.4 °F 94% 29.78 in 2.5 mi West 8.1 mph - 0.09 in Rain , Thunderstorm Heavy Rain
11:28 PM 66.2 °F 62.6 °F 88% 29.78 in 1.5 mi WNW 5.8 mph - 0.14 in Rain , Thunderstorm Heavy Rain
11:33 PM 66.2 °F 62.6 °F 88% 29.78 in 0.8 mi Calm Calm - 0.24 in Rain , Thunderstorm Heavy Rain
11:37 PM 66.2 °F 64.4 °F 94% 29.77 in 1.0 mi Calm Calm - 0.28 in Rain , Thunderstorm Heavy Thunderstorms and Rain
11:42 PM 66.2 °F 62.6 °F 88% 29.77 in 2.0 mi East 3.5 mph - 0.29 in Rain , Thunderstorm Thunderstorms and Rain
11:50 PM 66.2 °F 62.6 °F 88% 29.77 in 5.0 mi East 3.5 mph - 0.31 in Rain , Thunderstorm Rain
11:52 PM 66.0 °F 64.0 °F 93% 29.76 in 5.0 mi East 4.6 mph - 0.31 in Rain , Thunderstorm Rain